Soldotna, AK

2:40 PM AKDT on September 24, 2017 (GMT -0800)
Soldotna

Weather History for PASX - July, 2013

Change the Weather History Date:

Thursday, July 4, 2013

  Actual Average Record
Temperature  
Mean Temperature 48 °F -  
Max Temperature 51 °F 59 °F 77 °F (1999)
Min Temperature 46 °F 46 °F 37 °F (1982)
Degree Days  
Heating Degree Days 16    
Moisture  
Dew Point 45 °F    
Average Humidity 82    
Maximum Humidity 93    
Minimum Humidity 71    
Precipitation  
Precipitation 0.05 in - - ()
Sea Level Pressure  
Sea Level Pressure 30.03 in    
Wind  
Wind Speed 3 mph (WSW)    
Max Wind Speed 9 mph    
Max Gust Speed -    
Visibility 9 miles    
Events      
Averages and records for this station are not official NWS values.
T = Trace of Precipitation, MM = Missing Value Source: NWS Daily Summary

Daily Weather History Graph

Daily Weather History Graph

Search for Another Location

Airport or City:

Trip Planner

Search our weather history database for the weather conditions in past years. The results will help you decide how hot, cold, wet, or windy it might be!

Date:

Astronomy

Jul. 04, 2013 Rise Set
Actual Time 4:45 AM AKDT 11:31 PM AKDT
Civil Twilight 3:01 AM AKDT 1:12 AM AKDT
Nautical Twilight Sun does not set Sun does not set
Astronomical Twilight Sun does not set Sun does not set
Moon 2:39 AM AKDT (7/4) 8:19 PM AKDT (7/4)
Length of Visible Light 22h 11m
Length of Day
18h 45m
Waning Crescent, 10% of the Moon is Illuminated
Jul 4
Waning Crescent
Jul 7
New
Jul 15
First Quarter
Jul 22
Full
Jul 29
Last Quarter

Hourly Weather History & Observations

Time (AKDT) Temp. Windchill Dew Point Humidity Pressure Visibility Wind Dir Wind Speed Gust Speed Precip Events Conditions
12:16 AM 50.0 °F - 44.6 °F 82% 30.00 in 10.0 mi Calm Calm - N/A   Unknown
12:36 AM 50.0 °F - 44.6 °F 82% 30.00 in 10.0 mi Calm Calm - N/A   Unknown
12:56 AM 48.2 °F - 44.6 °F 87% 30.00 in 10.0 mi Calm Calm - N/A   Unknown
1:16 AM 48.2 °F - 44.6 °F 87% 30.00 in 10.0 mi Calm Calm - N/A   Unknown
1:36 AM 48.2 °F - 44.6 °F 87% 30.00 in 9.0 mi SSE 3.5 mph - N/A   Unknown
1:56 AM 48.2 °F - 44.6 °F 87% 30.00 in 10.0 mi ENE 3.5 mph - N/A   Unknown
2:16 AM 48.2 °F - 44.6 °F 87% 30.00 in 8.0 mi Calm Calm - N/A   Unknown
2:36 AM 48.2 °F - 44.6 °F 87% 30.00 in 9.0 mi Calm Calm - N/A   Unknown
2:56 AM 48.2 °F - 44.6 °F 87% 30.00 in 7.0 mi East 3.5 mph - N/A   Unknown
3:16 AM 48.2 °F - 44.6 °F 87% 30.00 in 8.0 mi ESE 3.5 mph - N/A   Unknown
3:36 AM 48.2 °F - 44.6 °F 87% 30.00 in 10.0 mi Calm Calm - N/A   Unknown
3:56 AM 48.2 °F - 44.6 °F 87% 30.00 in 9.0 mi SSE 5.8 mph - N/A   Unknown
4:16 AM 48.2 °F - 42.8 °F 82% 30.00 in 10.0 mi East 3.5 mph - 0.01 in   Unknown
4:36 AM 46.4 °F 43.5 °F 44.6 °F 93% 29.99 in 10.0 mi East 5.8 mph - 0.01 in   Unknown
4:56 AM 46.4 °F 43.5 °F 44.6 °F 93% 29.99 in 9.0 mi East 5.8 mph - 0.02 in   Unknown
5:16 AM 46.4 °F 43.5 °F 44.6 °F 93% 29.99 in 9.0 mi ESE 5.8 mph - 0.01 in   Unknown
5:36 AM 46.4 °F 43.5 °F 44.6 °F 93% 29.99 in 9.0 mi ESE 5.8 mph - 0.01 in   Unknown
5:56 AM 46.4 °F 44.3 °F 44.6 °F 93% 29.99 in 8.0 mi East 4.6 mph - 0.01 in   Unknown
6:16 AM 46.4 °F 42.9 °F 42.8 °F 87% 29.98 in 8.0 mi ESE 6.9 mph - N/A   Unknown
6:36 AM 46.4 °F 43.5 °F 44.6 °F 93% 29.98 in 10.0 mi East 5.8 mph - N/A   Unknown
6:56 AM 46.4 °F 45.2 °F 44.6 °F 93% 29.99 in 9.0 mi East 3.5 mph - N/A   Unknown
7:16 AM 46.4 °F - 44.6 °F 93% 29.99 in 7.0 mi Calm Calm - 0.01 in   Unknown
7:36 AM 46.4 °F - 44.6 °F 93% 30.00 in 4.0 mi Calm Calm - 0.01 in   Unknown
7:56 AM 46.4 °F - 44.6 °F 93% 30.00 in 4.0 mi Calm Calm - 0.02 in   Unknown
8:16 AM 46.4 °F - 44.6 °F 93% 30.00 in 5.0 mi Calm Calm - N/A   Unknown
8:36 AM 48.2 °F - 44.6 °F 87% 30.00 in 7.0 mi Calm Calm - N/A   Unknown
8:56 AM 48.2 °F - 44.6 °F 87% 30.00 in 10.0 mi Calm Calm - N/A   Unknown
9:16 AM 48.2 °F - 44.6 °F 87% 30.00 in 9.0 mi Calm Calm - N/A   Unknown
9:36 AM 48.2 °F - 44.6 °F 87% 30.01 in 8.0 mi Calm Calm - N/A   Unknown
9:56 AM 48.2 °F - 46.4 °F 93% 30.01 in 10.0 mi WNW 3.5 mph - N/A   Unknown
10:16 AM 50.0 °F - 46.4 °F 87% 30.02 in 10.0 mi West 4.6 mph - N/A   Unknown
10:36 AM 50.0 °F - 44.6 °F 82% 30.02 in 9.0 mi West 4.6 mph - N/A   Unknown
10:56 AM 50.0 °F - 44.6 °F 82% 30.02 in 10.0 mi Calm Calm - N/A   Unknown
11:16 AM 50.0 °F - 44.6 °F 82% 30.02 in 10.0 mi Calm Calm - N/A   Unknown
11:36 AM 51.8 °F - 44.6 °F 76% 30.03 in 10.0 mi Calm Calm - N/A   Unknown
11:56 AM 51.8 °F - 44.6 °F 76% 30.03 in 10.0 mi West 3.5 mph - N/A   Unknown
12:16 PM 51.8 °F - 44.6 °F 76% 30.03 in 10.0 mi WNW 3.5 mph - N/A   Unknown
12:36 PM 51.8 °F - 46.4 °F 82% 30.03 in 10.0 mi West 8.1 mph - N/A   Unknown
12:56 PM 51.8 °F - 46.4 °F 82% 30.03 in 10.0 mi West 6.9 mph - N/A   Unknown
1:16 PM 51.8 °F - 46.4 °F 82% 30.04 in 10.0 mi WNW 6.9 mph - N/A   Unknown
1:36 PM 51.8 °F - 44.6 °F 76% 30.04 in 10.0 mi West 6.9 mph - N/A   Unknown
1:56 PM 51.8 °F - 44.6 °F 76% 30.04 in 10.0 mi West 6.9 mph - N/A   Unknown
2:16 PM 51.8 °F - 44.6 °F 76% 30.04 in 10.0 mi West 5.8 mph - N/A   Unknown
2:36 PM 51.8 °F - 44.6 °F 76% 30.04 in 10.0 mi West 6.9 mph - N/A   Unknown
2:56 PM 51.8 °F - 44.6 °F 76% 30.05 in 10.0 mi West 5.8 mph - N/A   Unknown
3:16 PM 51.8 °F - 44.6 °F 76% 30.05 in 10.0 mi West 6.9 mph - N/A   Unknown
3:36 PM 51.8 °F - 44.6 °F 76% 30.05 in 10.0 mi West 8.1 mph - N/A   Unknown
3:56 PM 51.8 °F - 44.6 °F 76% 30.05 in 10.0 mi West 8.1 mph - N/A   Unknown
4:16 PM 51.8 °F - 44.6 °F 76% 30.05 in 10.0 mi West 9.2 mph - N/A   Unknown
4:36 PM 51.8 °F - 44.6 °F 76% 30.06 in 10.0 mi West 6.9 mph - N/A   Unknown
4:56 PM 51.8 °F - 44.6 °F 76% 30.06 in 10.0 mi West 8.1 mph - N/A   Unknown
5:16 PM 51.8 °F - 44.6 °F 76% 30.06 in 10.0 mi WSW 8.1 mph - N/A   Unknown
5:36 PM 51.8 °F - 44.6 °F 76% 30.05 in 10.0 mi WSW 4.6 mph - N/A   Unknown
5:56 PM 51.8 °F - 44.6 °F 76% 30.05 in 10.0 mi West 4.6 mph - N/A   Unknown
6:16 PM 51.8 °F - 42.8 °F 71% 30.05 in 10.0 mi WSW 5.8 mph - N/A   Unknown
6:36 PM 51.8 °F - 42.8 °F 71% 30.05 in 10.0 mi West 4.6 mph - N/A   Unknown
6:56 PM 51.8 °F - 42.8 °F 71% 30.05 in 10.0 mi WSW 3.5 mph - N/A   Unknown
7:16 PM 51.8 °F - 42.8 °F 71% 30.05 in 10.0 mi Calm Calm - N/A   Unknown
7:36 PM 51.8 °F - 42.8 °F 71% 30.05 in 10.0 mi WSW 3.5 mph - N/A   Unknown
7:56 PM 51.8 °F - 44.6 °F 76% 30.05 in 10.0 mi WSW 3.5 mph - N/A   Unknown
8:16 PM 51.8 °F - 42.8 °F 71% 30.05 in 10.0 mi Calm Calm - N/A   Unknown
8:36 PM 51.8 °F - 44.6 °F 76% 30.05 in 10.0 mi Calm Calm - N/A   Unknown
8:56 PM 51.8 °F - 44.6 °F 76% 30.05 in 10.0 mi Calm Calm - N/A   Unknown
9:16 PM 51.8 °F - 44.6 °F 76% 30.05 in 10.0 mi Calm Calm - N/A   Unknown
9:36 PM 51.8 °F - 46.4 °F 82% 30.05 in 10.0 mi Calm Calm - N/A   Unknown
9:56 PM 51.8 °F - 44.6 °F 76% 30.05 in 10.0 mi Calm Calm - N/A   Unknown
10:16 PM 51.8 °F - 44.6 °F 76% 30.06 in 10.0 mi Calm Calm - N/A   Unknown
10:36 PM 51.8 °F - 44.6 °F 76% 30.06 in 9.0 mi Calm Calm - N/A   Unknown
10:56 PM 51.8 °F - 44.6 °F 76% 30.06 in 10.0 mi Calm Calm - N/A   Unknown
11:16 PM 50.0 °F - 46.4 °F 87% 30.06 in 10.0 mi East 3.5 mph - N/A   Unknown
11:36 PM 50.0 °F - 44.6 °F 82% 30.06 in 10.0 mi Calm Calm - N/A   Unknown
11:56 PM 48.2 °F - 46.4 °F 93% 30.06 in 10.0 mi Calm Calm - N/A   Unknown